Погода в Подсолнечном

Россия / Самарская область     53°09′02″N   52°01′05″E
темп.,
°C
ветер,
м/с
пор.,
м/с
влажн.,
%
обл.,
%
осадки,
мм/ч
давл.,
гПа
погр.,
м
11 мая, вт
вт1101:00+15вюв355690 0.0 102060
04:00+14вюв355891 0.0 102158
07:00+16юв385996 0.0 1023239
10:00+21ююв5646100 0.0 1024859
13:00+23юв464098 0.0 10251744
16:00+23вюв56405 0.0 10252331
19:00+20юв355528 0.0 102599
22:00+16вюв226098 0.0 102611
12 мая, ср
ср1201:00+15вюв2259100 0.0 102712
04:00+14вюв2261100 0.0 102717
07:00+17вюв266161 0.0 1027178
10:00+21вюв574184 0.0 10271025
13:00+23юв673432 0.0 10271963
16:00+23юв5636100 0.0 10272069
19:00+19юв3354100 0.0 102745
22:00+17вюв245295 0.0 102789
13 мая, чт
чт1301:00+14в365614 0.0 102789
04:00+13вюв376138 0.0 1027120
07:00+16вюв4106040 0.0 1027305
10:00+22юв58405 0.0 1027719
13:00+25юв57315 0.0 10261526
16:00+25юв673318 0.0 10251661
19:00+22юв354999 0.0 102575
22:00+17юв355199 0.0 102570
14 мая, пт
пт1401:00+16юв495264 0.0 1025133
04:00+15юв49547 0.0 1025135
07:00+17ююв4105612 0.0 1026249
10:00+24ю5739100 0.0 1026675
13:00+27ю562984 0.0 10251379
16:00+27ююз56295 0.0 10252239
19:00+23ю33450 0.0 102433
22:00+19ююв22445 0.0 102411
15 мая, сб
сб1501:00+17юв22495 0.0 102411
04:00+16ююв33565 0.0 102419
07:00+19ююв27575 0.0 1024171
10:00+25ю45365 0.0 1023611
13:00+28ю45265 0.0 10222317
16:00+28ююз34264 0.0 10212510
19:00+24ююв22430 0.0 102119
22:00+20юв33410 0.0 102015